Погода в Расеиниаи

Поиск расширенной информации на нашем сайте:

Полезная информация:

Новости сайта



02.01.2020
Опубликован Долгосрочный прогноз погоды по городам России и ближнего зарубежья на январь 2020 года.
Карты: Прогноз на январь и февраль 2020 года, Сравнение прогнозируемой аномалии приземной температуры воздуха на январь 2020 года по разным моделям.




Погода в Расеиниаи - сегодня

Время (UTC), дата Ветер
(°,м/с) 
Видим.   Явления Облачность Т
(°С)
Тd
(°С)
f(%) Тe
(°С)
Pmin
(гПа)
dP
(гПа)
Po
(мм)
O2
(г/м3)
Тmin Tmax R s Состояние
почвы
03 24.02.21 260 (З) 2-4{06}  0100 м  туман  10/0 
+1 +0.9 99 1028.8  -0.7  761  305        18   
06 24.02.21 250 (З) 2-3{05}  0100 м  туман  10/0 
+1.4 +1.2 99 +1  1029.3  0.5  761  305  +0.8      19   
09 24.02.21 240 (ЮЗ) 3-5{05}  0100 м  слаб. дождь  10/0 
+3.4 +3.2 99 +2  1028.3  -0.9  761  302        18   
12 24.02.21 260 (З) 2-4{06}  0100 м  слаб. ливневой дождь  10/0 
+4.2 +4 99 +4  1028.9  0.7  761  302      0.0  18   
15 24.02.21 230 (ЮЗ) 2-3{05}  5000 м  дымка  1/0 
+5.6 +5.4 99 +5  1027.1  -1.8  760  299        16   
21 24.02.21 250 (З) 3-4{06}  4300 м  дымка  ясно 
+4.6 +4.4 99 +3  1025.5  -0.8  759  300        16   
00 25.02.21 230 (ЮЗ) 3-4{05}  2200 м  дымка  1/0 
+3.6 +3.4 99 +2  1025  -0.5  758  301        16   
03 25.02.21 250 (З) 4-7{07}  8000 м  дымка  9/0 
+4.6 +4.5 99 +3  1024.2  -0.8  758  300        14   
12 25.02.21 230 (ЮЗ) 3-5{06}  16000 м    ясно <0100 м 
+9.8 +5.5 75 +9  1023.7  -1  758  294           
15 25.02.21 230 (ЮЗ) 1-3{06}  13000 м    ясно <0100 м 
+11.3 +6.4 72 +12  1021.7  -1.9  756  292           
18 25.02.21 220 (ЮЗ) 3-5{05}  15000 м    ясно <0100 м 
+7.6 +5.4 86 +7  1020.6  -1.3  755  295    +12.1       
21 25.02.21 240 (ЮЗ) 3-6{06}  11000 м    ясно <0100 м 
+7 +6.2 95 +6  1019.2  -1.4  754  295           
00 26.02.21 250 (З) 4-7{09}  6000 м  дымка  8/8 600 м 
+5.6 +5.5 99 +4  1018.2  -1  753  297        11   
03 26.02.21 260 (З) 5-8{09}  4000 м  дымка  10/10 200 м 
+4.3 +4.1 99 +2  1017.4  -0.9  753  298        10   
06 26.02.21 250 (З) 4-7{09}  7000 м  дымка  10/10 200 м 
+3 +2.8 99 +1  1017.2  -0.2  753  300  +2.9      10   
12 26.02.21 250 (З) 5-8{11}  11000 м    10/10 100 м 
+3 +2.9 99 +1  1017.1  -0.3  753  299         
15 26.02.21 250 (З) 5-9{09}  11000 м    10/10 300 м 
+2.8 +2.7 99 1016.3  -0.8  752  299         
18 26.02.21 270 (З) 3-6{09}  13000 м    10/10 100 м 
+2.6 +2.5 99 +1  1017.1  0.7  752  300    +3.3     
21 26.02.21 260 (З) 2-5{08}  16000 м    9/9 200 м 
+2.4 +2.2 99 +2  1017.2  -0.1  753  300         
00 27.02.21 270 (З) 1-4{06}  13000 м    9/0 2000 м 
+1.7 +1.5 99 +2  1017.7  0.5  753  301         
03 27.02.21 320 (СЗ) 5-8{08}  20000 м    ясно 
+2.4 +0.5 87 1018.6  0.9  754  301         
06 27.02.21 310 (СЗ) 4-6{09}  20000 м    ясно <0100 м 
+1.4 -0.3 88 -1  1021.3  2.6  756  303  +1       
09 27.02.21 320 (СЗ) 6-9{11}  20000 м    ясно 
+3.7 -0.1 76 +1  1023.2  757  301         
12 27.02.21 320 (СЗ) 6-9{12}  20000 м    ясно 
+5.7 -0.9 62 +3  1024.8  1.7  758  299         
15 27.02.21 320 (СЗ) 6-9{11}  20000 м    ясно 
+5.4 -2.2 58 +3  1026  1.2  759  300         
Время (UTC), дата Ветер
(°,м/с) 
Видим.   Явления Облачность Т
(°С)
Тd
(°С)
f(%) Тe
(°С)
Pmin
(гПа)
dP
(гПа)
Po
(мм)
O2
(г/м3)
Тmin Tmax R s Состояние
почвы

Для получения пояснительной информации подведите курсор к названию столбца.

ПОГОДА в Расеиниаи - архив

Всё, что Вы хотите узнать о погоде в Расеиниаи - удобно и подробно!

Выберите нужную дату (начиная с 1 января 2019* года) и нажмите кнопку "Найти".
Будут отображены архивные сводки погоды по пункту Расеиниаи, начиная с указанной даты.


Отображать данные в формате CSV (для использования в таблицах Excel)


Внимание! Наш архив погоды предназначен исключительно для личного некоммерческого использования в познавательных целях. Если Вам необходимы официальные справки о состоянии погоды (для производственных, юридических, коммерческих и т.п. целей), обращайтесь в органы Росгидромета.

*Примечание: данная дата относится к архиву по метеостанциям СССР (Россия, СНГ, Балтия).
Архив по метеостанциям Зарубежной Европы и Азии (кроме Китая) хранится 10 дней, по другим регионам земного шара (Китай, Африка, Америка, Австралия, Океания) - 1 день.

Расеиниаи - район местоположения метеостанции


Название, широта, долгота, высота метеостанции:
Расеиниаи 55.4°ш. 23.1°д. 111 м над ур. моря [Литва]

Дополнительная информация

В oтличие oт бoльшинства пoгoдных сайтoв мы публикуем пoдрoбную метеoинфoрмацию в детальнoм прoфессиoнальнoм фoрмате.

Характеристики температуры и влажнoсти вoздуха измеряются на высoте 2 м в тени вдали oт зданий и деревьев.
Скoрoсть ветра измеряется на высoте 10 м (на урoвне рoста челoвека скoрoсть ветра ниже в 1.5-2 раза). Если метеoстанция нахoдится в гoрoде или в лесу, тo скoрoсть ветра занижена на 2-4 м/с пo сравнению с oткрытым местoм. Скoрoсть ветра над акватoриями крупных рек и oзёр, а также на вершинах хoлмoв на 2-5 м/с выше, чем в oбычных услoвиях.
Атмoсфернoе давление в разных тoчках местнoсти мoжет значительнo oтличаться oт давления на метеoстанции, в зависимoсти oт услoвий рельефа (при пoдъёме на 10 м давление пoнижается примернo на 1 мм рт.ст.).